Location: Unspecified
(48.8656°N, 0.0000°E)
Time: 16:36:51
(UTC+00:00)

Vanguard 1 - Pass Details

Date: 23 June 2019
Orbit: 653 x 3830 km, 34.3° (Epoch: 22 July)

Event Time Altitude Azimuth Distance (km) Brightness Sun altitude
Rises 23:21:22 0° 192° (SSW) 7,958 - -17.1°
Reaches altitude 10° 23:29:57 10° 177° (S) 6,780 - -17.4°
Exits shadow 23:38:23 17° 155° (SSE) 5,807 13.4 -17.5°
Maximum altitude 23:41:47 18° 144° (SE) 5,534 13.4 -17.6°
Drops below altitude 10° 23:51:21 10° 109° (ESE) 5,421 13.6 -17.7°
Sets 23:56:47 0° 92° (E) 5,879 14.0 -17.7°
